{"data":{"norad_id":64367,"intl_designator":"2025-126Z","name":"STARLINK-34483","alt_names":[],"object_type":"PAYLOAD","status":"ACTIVE","operator":null,"country":"US","launch_date":"2025-06-13","launch_site_code":"AFWTR","launch_vehicle":null,"mission":null,"orbit_class":"UNKNOWN","rcs_meters":null,"size_class":null,"mass_kg":null,"dimensions":null,"purposes":["comms"],"wikipedia_slug":null,"has_3d_model":false,"image_url":null,"decayed_at":null,"tle_current":{"epoch":"2026-09-20T22:36:45.349056Z","epoch_age_seconds":96151,"freshness":"FRESH","line1":"1 64367U 25126Z   26263.94219154  .00000616  00000+0  25893-4 0  9999","line2":"2 64367  70.0070 259.5685 0002909 268.2811  91.8031 15.29557464 69993","mean_motion":15.29557464,"eccentricity":0.0002909,"inclination_deg":70.007,"raan_deg":259.5685,"arg_perigee_deg":268.2811,"mean_anomaly_deg":91.8031,"bstar":2.5893e-5,"rev_number":6999,"period_min":94.144877449338,"perigee_km":475.14003926427,"apogee_km":479.12843607035,"semimajor_km":6855.2712376673,"source":"CELESTRAK","updated_at":"2026-09-21T09:00:35.320925Z"}}}